TimeMST,TemperatureF,Dew PointF,Humidity,Sea Level PressureIn,VisibilityMPH,Wind Direction,Wind SpeedMPH,Gust SpeedMPH,PrecipitationIn,Events,Conditions,WindDirDegrees,DateUTC
12:52 AM,33.1,25.0,72,29.97,10.0,Calm,Calm,-,N/A,,Clear,0,2014-02-16 07:52:00
1:52 AM,34.0,26.1,73,29.91,10.0,SSE,6.9,-,N/A,,Clear,150,2014-02-16 08:52:00
2:52 AM,33.1,26.1,75,29.86,10.0,SE,6.9,-,N/A,,Clear,140,2014-02-16 09:52:00
3:52 AM,36.0,27.0,70,29.81,10.0,South,17.3,25.3,N/A,,Clear,190,2014-02-16 10:52:00
4:52 AM,37.0,28.0,70,29.78,10.0,South,15.0,21.9,N/A,,Partly Cloudy,190,2014-02-16 11:52:00
5:52 AM,37.9,28.0,68,29.77,10.0,SSW,13.8,25.3,N/A,,Clear,200,2014-02-16 12:52:00
6:52 AM,39.0,28.0,65,29.73,10.0,South,21.9,28.8,N/A,,Clear,190,2014-02-16 13:52:00
7:52 AM,39.0,28.0,65,29.74,10.0,SSW,17.3,24.2,N/A,,Clear,210,2014-02-16 14:52:00
8:52 AM,39.9,30.0,68,29.73,10.0,SSW,12.7,20.7,N/A,,Clear,210,2014-02-16 15:52:00
9:52 AM,44.1,32.0,63,29.68,10.0,South,15.0,23.0,N/A,,Clear,190,2014-02-16 16:52:00
10:52 AM,46.0,34.0,63,29.65,10.0,SSW,16.1,25.3,N/A,,Clear,200,2014-02-16 17:52:00
11:52 AM,46.0,34.0,63,29.60,10.0,South,20.7,29.9,N/A,,Clear,190,2014-02-16 18:52:00
12:52 PM,52.0,35.1,53,29.55,10.0,South,18.4,-,N/A,,Clear,190,2014-02-16 19:52:00
1:52 PM,61.0,36.0,39,29.51,10.0,SW,15.0,24.2,N/A,,Clear,220,2014-02-16 20:52:00
2:52 PM,62.1,32.0,32,29.51,10.0,SW,18.4,27.6,N/A,,Clear,230,2014-02-16 21:52:00
3:52 PM,57.0,34.0,42,29.52,10.0,WSW,12.7,21.9,N/A,,Clear,240,2014-02-16 22:52:00
4:52 PM,55.9,34.0,44,29.54,10.0,West,9.2,-,N/A,,Clear,260,2014-02-16 23:52:00
5:52 PM,48.9,35.1,59,29.56,10.0,Variable,4.6,-,0.00,Rain,Light Rain,0,2014-02-17 00:52:00
6:52 PM,53.1,34.0,48,29.60,10.0,WSW,17.3,24.2,0.00,,Overcast,250,2014-02-17 01:52:00
7:52 PM,50.0,34.0,54,29.63,10.0,West,18.4,27.6,N/A,,Scattered Clouds,270,2014-02-17 02:52:00
8:08 PM,44.6,33.8,66,29.66,10.0,North,23.0,36.8,N/A,,Mostly Cloudy,350,2014-02-17 03:08:00
8:17 PM,42.8,33.8,70,29.67,10.0,North,25.3,35.7,N/A,,Overcast,350,2014-02-17 03:17:00
8:52 PM,37.9,30.9,76,29.79,10.0,North,25.3,36.8,N/A,,Overcast,350,2014-02-17 03:52:00
9:36 PM,35.6,32.0,87,29.78,10.0,North,16.1,25.3,0.00,,Overcast,360,2014-02-17 04:36:00
9:52 PM,35.1,32.0,89,29.84,10.0,North,18.4,31.1,0.00,Snow,Light Snow,350,2014-02-17 04:52:00
10:11 PM,35.6,32.0,87,29.82,9.0,North,16.1,28.8,0.00,Snow,Light Snow,350,2014-02-17 05:11:00
10:52 PM,35.1,30.9,85,29.87,10.0,North,6.9,16.1,0.00,,Overcast,350,2014-02-17 05:52:00
11:52 PM,34.0,30.9,89,29.93,10.0,WSW,15.0,-,N/A,,Overcast,250,2014-02-17 06:52:00